Weather History for KCQC - March, 2014

Change the Weather History Date:

Friday, March 21, 2014

  Actual Average (KSAF) Record (KSAF)
Temperature  
Mean Temperature 48 °F -  
Max Temperature 64 °F 0 °F 78 °F (1997)
Min Temperature 33 °F - 21 °F (2006)
Degree Days  
Heating Degree Days 16    
Moisture  
Dew Point 9 °F    
Average Humidity 23    
Maximum Humidity 41    
Minimum Humidity 8    
Precipitation  
Precipitation 0.00 in - - ()
Sea Level Pressure  
Sea Level Pressure 29.84 in    
Wind  
Wind Speed 16 mph (West)    
Max Wind Speed 25 mph    
Max Gust Speed 32 mph    
Visibility 10 miles    
Events      
Averages and records for this station are not official NWS values.
T = Trace of Precipitation, MM = Missing Value Source: NWS Daily Summary

Daily Weather History Graph

Daily Weather History Graph

Search for Another Location

Airport or City:

Trip Planner

Search our weather history database for the weather conditions in past years. The results will help you decide how hot, cold, wet, or windy it might be!

Date:

Astronomy

Mar. 21, 2014 Rise Set
Actual Time 7:04 AM MDT 7:15 PM MDT
Civil Twilight 6:39 AM MDT 7:40 PM MDT
Nautical Twilight 6:10 AM MDT 8:10 PM MDT
Astronomical Twilight 5:40 AM MDT 8:39 PM MDT
Moon No Moon Rise 10:09 AM MDT (3/21)
Length of Visible Light 13h 00m
Length of Day
12h 10m
Waning Gibbous, 75% of the Moon is Illuminated
Mar 21
Waning Gibbous
Mar 23
Last Quarter
Mar 30
New
Apr 7
First Quarter
Apr 15
Full

Hourly Weather History & Observations

Time (MDT) Temp. Windchill Dew Point Humidity Pressure Visibility Wind Dir Wind Speed Gust Speed Precip Events Conditions
12:53 AM 43.0 °F 35.7 °F 12.9 °F 30% 29.81 in 10.0 mi West 15.0 mph - N/A   Clear
1:53 AM 41.0 °F 32.8 °F 14.0 °F 33% 29.81 in 10.0 mi WSW 16.1 mph - N/A   Clear
2:53 AM 39.9 °F 32.5 °F 12.0 °F 32% 29.79 in 10.0 mi West 12.7 mph - N/A   Clear
3:53 AM 41.0 °F 31.9 °F 10.0 °F 28% 29.76 in 10.0 mi West 19.6 mph - N/A   Clear
4:53 AM 39.0 °F 29.9 °F 9.0 °F 29% 29.76 in 10.0 mi WNW 17.3 mph - N/A   Clear
5:53 AM 34.0 °F 24.2 °F 10.9 °F 38% 29.79 in 10.0 mi WNW 15.0 mph - N/A   Clear
6:53 AM 33.1 °F 22.6 °F 10.0 °F 38% 29.84 in 10.0 mi WNW 16.1 mph - N/A   Clear
7:53 AM 39.0 °F 31.8 °F 10.0 °F 30% 29.86 in 10.0 mi NW 11.5 mph - N/A   Clear
8:53 AM 44.1 °F 37.7 °F 8.1 °F 23% 29.86 in 10.0 mi West 12.7 mph - N/A   Clear
9:53 AM 51.1 °F - 8.1 °F 18% 29.85 in 10.0 mi WNW 8.1 mph - N/A   Clear
10:53 AM 55.0 °F - 7.0 °F 15% 29.84 in 10.0 mi WNW 13.8 mph - N/A   Clear
11:53 AM 55.9 °F - 9.0 °F 15% 29.84 in 10.0 mi WSW 11.5 mph 18.4 mph N/A   Clear
12:53 PM 60.1 °F - 6.1 °F 12% 29.83 in 10.0 mi WSW 13.8 mph 24.2 mph N/A   Clear
1:53 PM 63.0 °F - 3.9 °F 10% 29.80 in 10.0 mi WSW 17.3 mph - N/A   Clear
2:53 PM 62.1 °F - -0.0 °F 8% 29.80 in 10.0 mi WSW 12.7 mph 27.6 mph N/A   Clear
3:53 PM 64.0 °F - 1.0 °F 8% 29.76 in 10.0 mi West 18.4 mph 25.3 mph N/A   Clear
4:53 PM 63.0 °F - 1.9 °F 9% 29.77 in 10.0 mi West 20.7 mph 26.5 mph N/A   Clear
5:53 PM 61.0 °F - 3.0 °F 10% 29.81 in 10.0 mi West 21.9 mph 27.6 mph N/A   Clear
6:53 PM 55.9 °F - 3.9 °F 12% 29.85 in 10.0 mi West 11.5 mph - N/A   Clear
7:53 PM 50.0 °F - 12.9 °F 23% 29.89 in 10.0 mi East 15.0 mph 20.7 mph N/A   Scattered Clouds
8:06 PM 48.0 °F - 14.0 °F 26% 30.02 in 10.0 mi East 19.6 mph 28.8 mph N/A   Mostly Cloudy
8:53 PM 46.9 °F - 15.1 °F 28% 29.93 in 10.0 mi East 20.7 mph 26.5 mph N/A   Overcast
9:53 PM 44.1 °F 35.0 °F 16.0 °F 32% 29.93 in 10.0 mi East 24.2 mph 31.1 mph N/A   Overcast
10:53 PM 42.1 °F 32.1 °F 17.1 °F 37% 29.96 in 10.0 mi East 25.3 mph 32.2 mph N/A   Overcast
11:53 PM 39.0 °F 28.8 °F 17.1 °F 41% 29.96 in 10.0 mi East 21.9 mph - N/A   Clear